Location: Abundant Grace Fellowship
(35.0349°N, 90.0924°W)
Time: 21:31:52
(UTC+00:00)

Meteor 2-15 - Pass Details

Date: 18 January 2026
Orbit: 935 x 955 km, 82.5° (Epoch: 10 February)

Event Time Altitude Azimuth Distance (km) Brightness Sun altitude
Rises 23:58:44 0° 354° (N) 3,627 7.4 -9.3°
Reaches altitude 10° 00:01:15 10° 356° (N) 2,676 6.7 -9.8°
Maximum altitude 00:07:23 77° 83° (E) 972 4.4 -11.0°
Drops below altitude 10° 00:13:26 10° 169° (S) 2,647 6.9 -12.2°
Sets 00:15:54 0° 171° (S) 3,585 7.6 -12.7°
